CW9206 Weather Reports


time (UTC)temp
C
wind
direction
speed
KPH
gust
KPH
rain 1hr
cm
rain 24hr
cm
rain mn
cm
humidity
%
barometer
mb
20260507185723 24 171 3.2 9.7 0.00 0.00 0.00 36 1015.3
20260507185224 24 303 3.2 8.0 0.00 0.00 0.00 35 1015.3
20260507184723 24 307 3.2 6.4 0.00 0.00 0.00 34 1015.4
20260507184223 24 308 0.0 9.7 0.00 0.00 0.00 33 1015.4
20260507183223 23 308 8.0 11.3 0.00 0.00 0.00 31 1015.3
20260507182723 22 308 0.0 11.3 0.00 0.00 0.00 31 1015.4
20260507182223 22 309 8.0 8.0 0.00 0.00 0.00 31 1015.5
20260507181723 21 309 0.0 8.0 0.00 0.00 0.00 30 1015.4
20260507181223 21 311 3.2 6.4 0.00 0.00 0.00 30 1015.5
20260507180723 21 310 0.0 6.4 0.00 0.00 0.00 30 1015.6
20260507180223 20 310 4.8 6.4 0.00 0.00 0.00 29 1015.4
20260507175723 20 310 0.0 6.4 0.00 0.00 0.00 29 1015.5
20260507175223 20 311 6.4 6.4 0.00 0.00 0.00 28 1015.5
20260507174723 19 311 0.0 8.0 0.00 0.00 0.00 28 1015.6
20260507174222 18 312 3.2 8.0 0.00 0.00 0.00 27 1015.6
20260507173722 18 311 0.0 6.4 0.00 0.00 0.00 26 1015.7
20260507173222 18 313 0.0 8.0 0.00 0.00 0.00 25 1015.5
20260507172222 17 313 0.0 8.0 0.00 0.00 0.00 24 1015.7
20260507171722 17 314 1.6 8.0 0.00 0.00 0.00 23 1015.6
20260507171222 17 308 0.0 8.0 0.00 0.00 0.00 22 1015.7
20260507170722 17 308 0.0 9.7 0.00 0.00 0.00 21 1015.8
20260507170252 16 307 4.8 9.7 0.00 0.00 0.00 20 1015.8
20260507165751 16 164 0.0 9.7 0.00 0.00 0.00 18 1015.8
20260507165252 16 320 0.0 8.0 0.00 0.00 0.00 16 1015.8
20260507164751 16 320 0.0 8.0 0.00 0.00 0.00 14 1015.9
20260507164252 16 321 0.0 8.0 0.00 0.00 0.00 12 1015.9
20260507163751 15 321 3.2 4.8 0.00 0.00 0.00 12 1015.9
20260507162752 14 321 0.0 3.2 0.00 0.00 0.00 12 1016.0
20260507162251 14 325 0.0 0.0 0.00 0.00 0.00 13 1016.0
20260507161751 13 322 0.0 0.0 0.00 0.00 0.00 13 1015.9
20260507161252 13 322 0.0 0.0 0.00 0.00 0.00 13 1016.0
20260507160751 13 322 0.0 0.0 0.00 0.00 0.00 13 1016.0
20260507155751 13 322 0.0 0.0 0.00 0.00 0.00 13 1016.1
20260507155250 13 322 0.0 0.0 0.00 0.00 0.00 13 1016.1
20260507154750 13 322 0.0 0.0 0.00 0.00 0.00 13 1016.1
20260507154250 12 322 0.0 0.0 0.00 0.00 0.00 13 1016.1
20260507153251 12 322 0.0 0.0 0.00 0.00 0.00 13 1016.1
20260507152250 13 322 0.0 0.0 0.00 0.00 0.00 13 1016.1
20260507151750 12 322 0.0 0.0 0.00 0.00 0.00 13 1016.1
20260507151250 12 322 0.0 4.8 0.00 0.00 0.00 13 1016.1
20260507150250 12 322 0.0 0.0 0.00 0.00 0.00 13 1016.1
20260507145250 12 322 0.0 0.0 0.00 0.00 0.00 13 1016.0
20260507144749 12 322 0.0 0.0 0.00 0.00 0.00 13 1016.0
20260507144250 12 322 0.0 0.0 0.00 0.00 0.00 13 1016.0
20260507143749 12 322 0.0 0.0 0.00 0.00 0.00 13 1016.0
20260507143249 12 322 0.0 0.0 0.00 0.00 0.00 13 1016.0
20260507142750 12 322 0.0 0.0 0.00 0.00 0.00 13 1016.0
20260507141749 12 322 0.0 0.0 0.00 0.00 0.00 13 1015.9
20260507140749 12 322 0.0 0.0 0.00 0.00 0.00 13 1015.8
20260507140249 12 322 0.0 0.0 0.00 0.00 0.00 13 1015.9
20260507135249 12 307 0.0 0.0 0.00 0.00 0.00 13 1015.9
20260507134749 12 307 0.0 0.0 0.00 0.00 0.00 13 1015.9
20260507134248 12 307 0.0 6.4 0.00 0.00 0.00 13 1015.8
20260507133749 12 307 0.0 6.4 0.00 0.00 0.00 13 1015.8
20260507131748 12 307 0.0 0.0 0.00 0.00 0.00 13 1015.5
20260507131248 12 307 0.0 0.0 0.00 0.00 0.00 13 1015.4
20260507130748 12 307 0.0 0.0 0.00 0.00 0.00 13 1015.4
20260507125748 12 307 0.0 0.0 0.00 0.00 0.00 13 1015.5
20260507125248 12 307 0.0 0.0 0.00 0.00 0.00 13 1015.4
20260507124748 12 307 0.0 0.0 0.00 0.00 0.00 13 1015.4
20260507124247 12 307 0.0 0.0 0.00 0.00 0.00 13 1015.5
20260507123747 12 307 0.0 0.0 0.00 0.00 0.00 13 1015.4
20260507123248 12 307 0.0 0.0 0.00 0.00 0.00 13 1015.4
20260507122248 12 307 0.0 0.0 0.00 0.00 0.00 13 1015.5
20260507121748 12 307 0.0 0.0 0.00 0.00 0.00 13 1015.6
20260507121247 12 307 0.0 0.0 0.00 0.00 0.00 13 1015.6
20260507120748 12 307 0.0 0.0 0.00 0.00 0.00 13 1015.6
20260507120247 12 307 0.0 0.0 0.00 0.00 0.00 13 1015.7
20260507115747 12 307 0.0 0.0 0.00 0.00 0.00 13 1015.8
20260507114247 12 307 0.0 0.0 0.00 0.00 0.00 13 1015.7
20260507113747 12 307 0.0 0.0 0.00 0.00 0.00 13 1015.8
20260507113247 12 307 0.0 0.0 0.00 0.00 0.00 13 1015.7
20260507112747 12 307 0.0 0.0 0.00 0.00 0.00 13 1015.8
20260507111746 12 307 0.0 0.0 0.00 0.00 0.00 13 1015.8
20260507111247 12 307 0.0 0.0 0.00 0.00 0.00 14 1015.8
20260507110746 12 307 0.0 0.0 0.00 0.00 0.00 14 1015.8
20260507105746 13 307 0.0 0.0 0.00 0.00 0.00 14 1015.9
20260507105246 13 307 0.0 0.0 0.00 0.00 0.00 14 1015.9
20260507104746 13 307 0.0 0.0 0.00 0.00 0.00 14 1016.0
20260507103746 13 307 0.0 0.0 0.00 0.00 0.00 14 1016.1
20260507103246 13 307 0.0 0.0 0.00 0.00 0.00 14 1016.1
20260507102246 13 307 0.0 0.0 0.00 0.00 0.00 14 1016.2
20260507101746 13 307 0.0 0.0 0.00 0.00 0.00 14 1016.2
20260507100745 13 307 0.0 0.0 0.00 0.00 0.00 14 1016.2
20260507095746 13 307 0.0 0.0 0.00 0.00 0.00 14 1016.4
20260507095246 13 307 0.0 0.0 0.00 0.00 0.00 13 1016.4
20260507094746 13 307 0.0 0.0 0.00 0.00 0.00 13 1016.4
20260507094245 13 307 0.0 0.0 0.00 0.00 0.00 13 1016.5
20260507093745 13 307 0.0 0.0 0.00 0.00 0.00 13 1016.5
20260507093245 13 307 0.0 0.0 0.00 0.00 0.00 13 1016.6
20260507092745 13 307 0.0 0.0 0.00 0.00 0.00 13 1016.5
20260507092245 13 307 0.0 0.0 0.00 0.00 0.00 13 1016.6
20260507091245 13 307 0.0 0.0 0.00 0.00 0.00 13 1016.6
20260507090745 13 307 0.0 0.0 0.00 0.00 0.00 13 1016.6
20260507090245 13 307 0.0 0.0 0.00 0.00 0.00 13 1016.7
20260507085744 13 307 0.0 0.0 0.00 0.00 0.00 13 1016.6
20260507085244 13 307 0.0 0.0 0.00 0.00 0.00 13 1016.8
20260507084745 13 307 0.0 0.0 0.00 0.00 0.00 13 1016.8
20260507084244 13 307 0.0 0.0 0.00 0.00 0.00 13 1016.9
20260507083744 13 307 0.0 4.8 0.00 0.00 0.00 13 1017.0
20260507083244 13 307 0.0 4.8 0.00 0.00 0.00 13 1017.1
20260507082744 13 307 0.0 3.2 0.00 0.00 0.00 13 1017.1
20260507082244 13 307 0.0 3.2 0.00 0.00 0.00 13 1017.1
20260507081744 13 307 0.0 0.0 0.00 0.00 0.00 13 1017.1
20260507080745 13 307 0.0 0.0 0.00 0.00 0.00 13 1017.2
20260507080244 13 307 0.0 0.0 0.00 0.00 0.00 13 1017.2
20260507075744 13 307 0.0 0.0 0.00 0.00 0.00 13 1017.3
20260507075244 13 307 0.0 0.0 0.00 0.00 0.00 13 1017.4
20260507074243 13 307 0.0 0.0 0.00 0.00 0.00 13 1017.4
20260507073743 13 307 0.0 0.0 0.00 0.00 0.00 13 1017.4
20260507073244 13 307 0.0 0.0 0.00 0.00 0.00 13 1017.3
20260507072743 13 307 0.0 0.0 0.00 0.00 0.00 13 1017.3
20260507072243 13 307 0.0 0.0 0.00 0.00 0.00 13 1017.3
20260507071743 13 307 0.0 0.0 0.00 0.00 0.00 13 1017.4
20260507071243 12 307 0.0 0.0 0.00 0.00 0.00 14 1017.3
20260507070743 12 307 0.0 0.0 0.00 0.00 0.00 14 1017.4
20260507065742 12 307 0.0 0.0 0.00 0.00 0.00 15 1017.4
20260507065243 12 307 0.0 0.0 0.00 0.00 0.00 15 1017.5
20260507064743 12 307 0.0 0.0 0.00 0.00 0.00 16 1017.5
20260507064243 12 307 0.0 0.0 0.00 0.00 0.00 16 1017.5
20260507063743 12 307 0.0 0.0 0.00 0.00 0.00 16 1017.5
20260507063242 12 307 0.0 0.0 0.00 0.00 0.00 17 1017.5
20260507062742 12 307 0.0 0.0 0.00 0.00 0.00 18 1017.5
20260507062242 12 307 0.0 0.0 0.00 0.00 0.00 18 1017.5
20260507061742 12 307 0.0 0.0 0.00 0.00 0.00 19 1017.4
20260507061242 12 307 0.0 0.0 0.00 0.00 0.00 19 1017.5
20260507060742 12 307 0.0 0.0 0.00 0.00 0.00 19 1017.5
20260507060242 12 307 0.0 0.0 0.00 0.00 0.00 19 1017.5
20260507055742 12 307 0.0 0.0 0.00 0.00 0.00 19 1017.5
20260507055242 12 307 0.0 0.0 0.00 0.00 0.00 19 1017.4
20260507054742 12 307 0.0 0.0 0.00 0.00 0.00 19 1017.4
20260507054242 12 307 0.0 0.0 0.00 0.00 0.00 18 1017.4
20260507053242 13 307 0.0 0.0 0.00 0.00 0.00 18 1017.5
20260507052741 13 307 0.0 0.0 0.00 0.00 0.00 18 1017.4
20260507052242 13 307 0.0 0.0 0.00 0.00 0.00 19 1017.5
20260507051741 13 307 0.0 0.0 0.00 0.00 0.00 19 1017.6
20260507050741 13 307 0.0 0.0 0.00 0.00 0.00 19 1017.6
20260507045741 13 307 0.0 0.0 0.00 0.00 0.00 20 1017.6
20260507045241 13 307 0.0 0.0 0.00 0.00 0.00 20 1017.5
20260507044741 13 307 0.0 0.0 0.00 0.00 0.00 20 1017.5
20260507044241 13 307 0.0 0.0 0.00 0.00 0.00 21 1017.4
20260507043741 13 307 0.0 0.0 0.00 0.00 0.00 21 1017.4
20260507043240 13 307 0.0 0.0 0.00 0.00 0.00 22 1017.3
20260507042740 13 307 0.0 0.0 0.00 0.00 0.00 22 1017.3
20260507042241 13 307 0.0 0.0 0.00 0.00 0.00 23 1017.2
20260507041241 14 307 0.0 0.0 0.00 0.00 0.00 25 1017.2
20260507040240 14 307 0.0 1.6 0.00 0.00 0.00 27 1017.1
20260507034740 15 227 0.0 0.0 0.00 0.00 0.00 29 1016.9
20260507033740 15 230 0.0 0.0 0.00 0.00 0.00 31 1016.7
20260507033240 15 230 0.0 6.4 0.00 0.00 0.00 32 1016.7
20260507032240 15 230 0.0 4.8 0.00 0.00 0.00 34 1016.6
20260507031739 15 229 0.0 0.0 0.00 0.00 0.00 35 1016.6
20260507031239 15 229 0.0 1.6 0.00 0.00 0.00 36 1016.6
20260507030740 16 229 0.0 6.4 0.00 0.00 0.00 37 1016.4
20260507030241 16 229 0.0 6.4 0.00 0.00 0.00 38 1016.5
20260507025739 16 227 0.0 6.4 0.00 0.00 0.00 38 1016.4
20260507025239 16 227 0.0 6.4 0.00 0.00 0.00 39 1016.3
20260507024739 16 226 0.0 4.8 0.00 0.00 0.00 40 1016.3
20260507024240 17 226 0.0 4.8 0.00 0.00 0.00 40 1016.4
20260507023739 17 227 0.0 0.0 0.00 0.00 0.00 41 1016.3
20260507023239 17 227 0.0 8.0 0.00 0.00 0.00 41 1016.3
20260507022739 17 226 0.0 8.0 0.00 0.00 0.00 42 1016.2
20260507022239 17 313 0.0 9.7 0.00 0.00 0.00 43 1016.1
20260507021738 17 313 0.0 9.7 0.00 0.00 0.00 44 1016.1
20260507021239 17 240 0.0 9.7 0.00 0.00 0.00 44 1016.1
20260507020739 18 241 0.0 11.3 0.00 0.00 0.00 45 1016.1
20260507015739 18 302 0.0 9.7 0.00 0.00 0.00 46 1016.0
20260507015239 18 309 4.8 9.7 0.00 0.00 0.00 46 1016.0
20260507014739 19 310 0.0 9.7 0.00 0.00 0.00 47 1015.8
20260507014238 19 313 0.0 14.5 0.00 0.00 0.00 47 1015.9
20260507013738 20 235 1.6 14.5 0.00 0.00 0.00 47 1015.7
20260507013238 20 200 6.4 11.3 0.00 0.00 0.00 47 1015.8
20260507011738 20 258 0.0 19.3 0.00 0.00 0.00 47 1015.7
20260507010738 21 213 8.0 16.1 0.00 0.00 0.00 47 1015.8
20260507010237 21 311 0.0 17.7 0.00 0.00 0.00 47 1015.8
20260507005737 21 246 4.8 17.7 0.00 0.00 0.00 46 1015.7
20260507005238 21 267 0.0 16.1 0.00 0.00 0.00 46 1015.7
20260507004737 21 228 6.4 16.1 0.00 0.00 0.00 46 1015.6
20260507004237 21 260 6.4 16.1 0.00 0.00 0.00 46 1015.7
20260507003739 22 269 4.8 11.3 0.00 0.00 0.00 46 1015.6
20260507003238 22 238 1.6 16.1 0.00 0.00 0.00 45 1015.6
20260507002738 22 246 1.6 16.1 0.00 0.00 0.00 45 1015.6
20260507002237 22 235 6.4 14.5 0.00 0.00 0.00 45 1015.5
20260507001737 22 123 3.2 16.1 0.00 0.00 0.00 45 1015.5
20260507001237 22 268 3.2 16.1 0.00 0.00 0.00 45 1015.5
20260507000237 22 255 0.0 20.9 0.00 0.00 0.00 45 1015.4
20260506235737 22 253 1.6 20.9 0.00 0.00 0.00 45 1015.4
20260506235237 22 178 0.0 14.5 0.00 0.00 0.00 45 1015.5
20260506234736 22 237 6.4 17.7 0.00 0.00 0.00 45 1015.5
20260506234236 22 194 4.8 17.7 0.00 0.00 0.00 45 1015.4
20260506233736 22 300 4.8 14.5 0.00 0.00 0.00 45 1015.4
20260506233236 22 157 0.0 16.1 0.00 0.00 0.00 45 1015.5
20260506232736 22 200 0.0 19.3 0.00 0.00 0.00 45 1015.4
20260506232236 22 223 0.0 19.3 0.00 0.00 0.00 45 1015.4
20260506231737 22 234 0.0 16.1 0.00 0.00 0.00 45 1015.4
20260506231236 22 315 4.8 16.1 0.00 0.00 0.00 45 1015.5
20260506230236 23 209 3.2 19.3 0.00 0.00 0.00 44 1015.6
20260506225736 23 232 0.0 19.3 0.00 0.00 0.00 43 1015.5
20260506225235 23 273 1.6 14.5 0.00 0.00 0.00 43 1015.6
20260506224735 23 243 0.0 16.1 0.00 0.00 0.00 43 1015.7
20260506223735 23 304 1.6 17.7 0.00 0.00 0.00 43 1015.7
20260506223235 23 238 3.2 19.3 0.00 0.00 0.00 43 1015.8
20260506222736 24 269 0.0 19.3 0.00 0.00 0.00 43 1015.9
20260506221735 23 326 3.2 20.9 0.00 0.00 0.00 43 1015.8
20260506221235 23 312 6.4 24.1 0.00 0.00 0.00 43 1016.0
20260506220735 23 286 0.0 24.1 0.00 0.00 0.00 43 1016.1
20260506220235 23 264 0.0 16.1 0.00 0.00 0.00 43 1016.1
20260506215735 23 238 3.2 16.1 0.00 0.00 0.00 43 1016.2
20260506215235 23 320 3.2 19.3 0.00 0.00 0.00 43 1016.1
20260506214735 23 229 1.6 22.5 0.00 0.00 0.00 43 1016.2
20260506214234 23 283 0.0 22.5 0.00 0.00 0.00 43 1016.2
20260506213734 23 215 1.6 20.9 0.00 0.00 0.00 43 1016.2
20260506212734 23 203 4.8 22.5 0.00 0.00 0.00 43 1016.3
20260506212234 23 233 8.0 19.3 0.00 0.00 0.00 43 1016.2
20260506211734 23 186 3.2 19.3 0.00 0.00 0.00 43 1016.1
20260506211234 23 301 11.3 19.3 0.00 0.00 0.00 44 1016.3
20260506210734 23 325 9.7 19.3 0.00 0.00 0.00 44 1016.2
20260506205734 23 265 6.4 20.9 0.00 0.00 0.00 43 1016.3
20260506204734 23 221 4.8 24.1 0.00 0.00 0.00 43 1016.3
20260506204234 23 303 0.0 24.1 0.00 0.00 0.00 43 1016.2
20260506203734 23 214 4.8 19.3 0.00 0.00 0.00 42 1016.2
20260506203234 23 306 4.8 17.7 0.00 0.00 0.00 42 1016.2
20260506202733 23 17 1.6 17.7 0.00 0.00 0.00 42 1016.3
20260506202233 23 257 14.5 17.7 0.00 0.00 0.00 42 1016.2
20260506201733 24 320 3.2 20.9 0.00 0.00 0.00 42 1016.3
20260506201233 24 312 9.7 20.9 0.00 0.00 0.00 41 1016.4
20260506200733 24 261 6.4 17.7 0.00 0.00 0.00 41 1016.4
20260506200233 24 263 8.0 17.7 0.00 0.00 0.00 41 1016.4
20260506195733 24 222 0.0 12.9 0.00 0.00 0.00 41 1016.4
20260506195234 24 291 1.6 12.9 0.00 0.00 0.00 41 1016.4
20260506194733 24 196 4.8 9.7 0.00 0.00 0.00 41 1016.4
20260506193733 24 248 3.2 17.7 0.00 0.00 0.00 40 1016.3
20260506193233 24 246 4.8 9.7 0.00 0.00 0.00 40 1016.3
20260506192734 24 199 0.0 9.7 0.00 0.00 0.00 40 1016.4
20260506191732 24 213 4.8 9.7 0.00 0.00 0.00 40 1016.5
20260506191232 24 220 8.0 11.3 0.00 0.00 0.00 39 1016.6
20260506190732 24 248 4.8 11.3 0.00 0.00 0.00 39 1016.7
20260506190232 23 288 6.4 8.0 0.00 0.00 0.00 39 1016.7